Newcastle, WY

9:27 AM MDT on July 23, 2017 (GMT -0600)
Mondell

Weather History for KECS - October, 2013

Change the Weather History Date:

Wednesday, October 16, 2013

  Actual Average (KCUT) Record (KCUT)
Temperature  
Mean Temperature 38 °F -  
Max Temperature 51 °F 55 °F 84 °F (1961)
Min Temperature 24 °F 29 °F 12 °F (1969)
Degree Days  
Heating Degree Days 28    
Moisture  
Dew Point 27 °F    
Average Humidity 71    
Maximum Humidity 93    
Minimum Humidity 35    
Precipitation  
Precipitation 0.00 in - - ()
Sea Level Pressure  
Sea Level Pressure 30.05 in    
Wind  
Wind Speed 4 mph (NNW)    
Max Wind Speed 16 mph    
Max Gust Speed 26 mph    
Visibility 10 miles    
Events      
Averages and records for this station are not official NWS values.
T = Trace of Precipitation, MM = Missing Value Source: NWS Daily Summary

Daily Weather History Graph

Daily Weather History Graph

Search for Another Location

Airport or City:

Trip Planner

Search our weather history database for the weather conditions in past years. The results will help you decide how hot, cold, wet, or windy it might be!

Date:

Astronomy

Oct. 16, 2013 Rise Set
Actual Time 7:13 AM MDT 6:11 PM MDT
Civil Twilight 6:44 AM MDT 6:40 PM MDT
Nautical Twilight 6:10 AM MDT 7:13 PM MDT
Astronomical Twilight 5:37 AM MDT 7:47 PM MDT
Moon 4:55 PM MDT (10/16) 4:39 AM MDT (10/16)
Length of Visible Light 11h 56m
Length of Day
10h 58m
Waxing Gibbous, 94% of the Moon is Illuminated
Oct 16
Waxing Gibbous
Oct 18
Full
Oct 26
Last Quarter
Nov 3
New
Nov 9
First Quarter

Hourly Weather History & Observations

Time (MDT) Temp. Windchill Dew Point Humidity Pressure Visibility Wind Dir Wind Speed Gust Speed Precip Events Conditions
12:15 AM 28.4 °F 24.6 °F 26.6 °F 93% 30.17 in - North 3.5 mph - N/A   Unknown
12:35 AM 28.4 °F 24.6 °F 26.6 °F 93% 30.16 in - NNE 3.5 mph - N/A   Unknown
12:55 AM 28.4 °F - 26.6 °F 93% 30.16 in - Calm Calm - N/A   Unknown
1:15 AM 28.4 °F - 26.6 °F 93% 30.15 in - Calm Calm - N/A   Unknown
1:35 AM 28.4 °F 23.3 °F 26.6 °F 93% 30.15 in - North 4.6 mph - N/A   Unknown
1:55 AM 28.4 °F 22.2 °F 26.6 °F 93% 30.14 in - North 5.8 mph - N/A   Unknown
2:15 AM 28.4 °F 23.3 °F 26.6 °F 93% 30.14 in - North 4.6 mph - N/A   Unknown
2:35 AM 28.4 °F - 26.6 °F 93% 30.14 in - Calm Calm - N/A   Unknown
2:55 AM 26.6 °F 22.6 °F 24.8 °F 93% 30.14 in - NNE 3.5 mph - N/A   Unknown
3:15 AM 28.4 °F 23.3 °F 26.6 °F 93% 30.12 in - North 4.6 mph - N/A   Unknown
3:35 AM 28.4 °F 24.6 °F 24.8 °F 86% 30.11 in - North 3.5 mph - N/A   Unknown
3:55 AM 28.4 °F 23.3 °F 24.8 °F 86% 30.11 in - North 4.6 mph - N/A   Unknown
4:15 AM 26.6 °F 20.0 °F 24.8 °F 93% 30.10 in - North 5.8 mph - N/A   Unknown
4:35 AM 26.6 °F 19.1 °F 24.8 °F 93% 30.10 in - North 6.9 mph - N/A   Unknown
4:55 AM 26.6 °F 19.1 °F 24.8 °F 93% 30.10 in - North 6.9 mph - N/A   Unknown
5:15 AM 26.6 °F 18.2 °F 24.8 °F 93% 30.08 in - North 8.1 mph - N/A   Unknown
5:35 AM 26.6 °F 21.2 °F 24.8 °F 93% 30.08 in - North 4.6 mph - N/A   Unknown
5:55 AM 26.6 °F 22.6 °F 24.8 °F 93% 30.07 in - North 3.5 mph - N/A   Unknown
6:15 AM 26.6 °F - 23.0 °F 86% 30.07 in - Calm Calm - N/A   Unknown
6:35 AM 26.6 °F 20.0 °F 23.0 °F 86% 30.07 in - North 5.8 mph - N/A   Unknown
6:55 AM 26.6 °F - 23.0 °F 86% 30.06 in - Calm Calm - N/A   Unknown
7:15 AM 24.8 °F - 23.0 °F 93% 30.07 in - Calm Calm - N/A   Unknown
7:35 AM 26.6 °F - 23.0 °F 86% 30.07 in - Calm Calm - N/A   Unknown
7:55 AM 26.6 °F 22.6 °F 24.8 °F 93% 30.08 in - ENE 3.5 mph - N/A   Unknown
8:15 AM 28.4 °F - 26.6 °F 93% 30.08 in - Calm Calm - N/A   Unknown
8:35 AM 30.2 °F - 28.4 °F 93% 30.08 in - Calm Calm - N/A   Unknown
8:55 AM 32.0 °F - 28.4 °F 87% 30.08 in - Calm Calm - N/A   Clear
9:15 AM 33.8 °F - 28.4 °F 81% 30.08 in - Calm Calm - N/A   Clear
9:35 AM 33.8 °F - 30.2 °F 87% 30.08 in - Calm Calm - N/A   Clear
9:55 AM 33.8 °F - 28.4 °F 81% 30.07 in - Calm Calm - N/A   Clear
10:15 AM 35.6 °F - 30.2 °F 81% 30.07 in - Calm Calm - N/A   Clear
10:35 AM 35.6 °F - 30.2 °F 81% 30.07 in - Calm Calm - N/A   Clear
10:55 AM 37.4 °F - 30.2 °F 75% 30.07 in - Calm Calm - N/A   Clear
11:15 AM 41.0 °F - 30.2 °F 65% 30.06 in - Calm Calm - N/A   Clear
11:35 AM 41.0 °F - 26.6 °F 57% 30.06 in - Calm Calm - N/A   Clear
11:55 AM 42.8 °F - 28.4 °F 57% 30.05 in - Calm Calm - N/A   Clear
12:15 PM 42.8 °F - 26.6 °F 53% 30.04 in - Calm Calm - N/A   Clear
12:35 PM 44.6 °F 41.4 °F 26.6 °F 49% 30.04 in - West 5.8 mph - N/A   Clear
12:55 PM 44.6 °F 40.7 °F 26.6 °F 49% 30.03 in - WNW 6.9 mph - N/A   Clear
1:15 PM 46.4 °F 42.9 °F 21.2 °F 37% 30.02 in - WNW 6.9 mph - N/A   Clear
1:35 PM 46.4 °F 42.4 °F 23.0 °F 40% 30.00 in - NW 8.1 mph - N/A   Clear
1:55 PM 48.2 °F - 23.0 °F 37% 30.00 in - NNW 9.2 mph - N/A   Clear
2:15 PM 48.2 °F - 23.0 °F 37% 29.99 in - WNW 9.2 mph - N/A   Clear
2:35 PM 50.0 °F - 23.0 °F 35% 29.99 in - NW 12.7 mph - N/A   Clear
2:55 PM 50.0 °F - 23.0 °F 35% 29.99 in 10.0 mi NW 10.4 mph - N/A   Clear
3:15 PM 50.0 °F - 23.0 °F 35% 29.99 in 10.0 mi NW 11.5 mph 16.1 mph N/A   Clear
3:35 PM 51.8 °F - 24.8 °F 35% 29.98 in 10.0 mi NNW 10.4 mph - N/A   Clear
3:55 PM 50.0 °F - 23.0 °F 35% 29.98 in 10.0 mi NNW 12.7 mph - N/A   Clear
4:15 PM 51.8 °F - 24.8 °F 35% 29.98 in 10.0 mi NW 9.2 mph - N/A   Clear
4:35 PM 51.8 °F - 26.6 °F 38% 29.98 in 10.0 mi NNW 11.5 mph - N/A   Clear
4:55 PM 51.8 °F - 24.8 °F 35% 29.97 in 10.0 mi NNW 10.4 mph - N/A   Clear
5:15 PM 50.0 °F - 23.0 °F 35% 29.97 in 10.0 mi NW 9.2 mph - N/A   Clear
5:35 PM 50.0 °F - 23.0 °F 35% 29.97 in 10.0 mi NW 8.1 mph - N/A   Clear
5:55 PM 48.2 °F - 26.6 °F 43% 29.97 in 10.0 mi NW 5.8 mph - N/A   Clear
6:15 PM 46.4 °F 43.5 °F 28.4 °F 50% 29.97 in 10.0 mi NW 5.8 mph - N/A   Clear
6:35 PM 42.8 °F 39.3 °F 30.2 °F 61% 29.98 in 10.0 mi NNW 5.8 mph - N/A   Clear
6:55 PM 42.8 °F 38.6 °F 28.4 °F 57% 29.98 in 10.0 mi NNW 6.9 mph - N/A   Clear
7:15 PM 41.0 °F 35.8 °F 28.4 °F 61% 29.99 in 10.0 mi North 8.1 mph - N/A   Clear
7:35 PM 41.0 °F 35.8 °F 28.4 °F 61% 29.99 in 10.0 mi North 8.1 mph - N/A   Clear
7:55 PM 41.0 °F 36.4 °F 28.4 °F 61% 29.98 in 10.0 mi North 6.9 mph - N/A   Clear
8:15 PM 39.2 °F 33.6 °F 28.4 °F 65% 29.98 in 10.0 mi NNW 8.1 mph - N/A   Clear
8:35 PM 35.6 °F 30.7 °F 30.2 °F 81% 29.99 in 10.0 mi NNW 5.8 mph - N/A   Clear
8:55 PM 35.6 °F 31.7 °F 30.2 °F 81% 30.00 in 10.0 mi NNW 4.6 mph - N/A   Clear
9:15 PM 35.6 °F 29.2 °F 30.2 °F 81% 30.00 in 10.0 mi NNW 8.1 mph - N/A   Clear
9:35 PM 37.4 °F 31.4 °F 30.2 °F 75% 30.01 in 10.0 mi NNW 8.1 mph - N/A   Clear
9:55 PM 35.6 °F 29.2 °F 30.2 °F 81% 30.02 in 10.0 mi NW 8.1 mph - N/A   Clear
10:15 PM 35.6 °F 29.9 °F 30.2 °F 81% 30.02 in 10.0 mi North 6.9 mph - N/A   Clear
10:35 PM 35.6 °F 29.9 °F 30.2 °F 81% 30.02 in 10.0 mi NW 6.9 mph - N/A   Clear
10:55 PM 37.4 °F 29.3 °F 30.2 °F 75% 30.03 in 10.0 mi NW 12.7 mph - N/A   Clear
11:15 PM 37.4 °F 29.3 °F 28.4 °F 70% 30.03 in 10.0 mi NW 12.7 mph - N/A   Clear
11:35 PM 37.4 °F 28.2 °F 30.2 °F 75% 30.03 in 10.0 mi NNW 16.1 mph 19.6 mph N/A   Clear
11:55 PM 37.4 °F 28.9 °F 30.2 °F 75% 30.03 in 10.0 mi NNW 13.8 mph 26.5 mph N/A   Clear